Hourly Data Report for September 13, 2015

EUREKA CLIMATE
NUNAVUT

79°59'21.000" N
85°56'02.000" W
10.00 m
2401199
71613
NEK

Download Data

Hourly Data (September 2015)
Hourly Data Report for September 13, 2015
TIME
LST
Temp Definition
°C
Dew Point Definition
°C
Rel Hum Definition
%
Precip. Amount Definition
mm

Wind Dir Definition
10's deg

Wind Spd Definition
km/h
Visibility Definition
km
Stn Press Definition
kPa
Hmdx Definition


Wind Chill Definition


Weather Definition


00:00 -3.1 -4.1 93 0.0 11 8   100.72   -6 LegendNANA
01:00 -2.5 -3.9 90 0.0 14 14   100.74   -7 LegendNANA
02:00 -2.2 -4.0 87 0.0 14 14   100.75   -7 LegendNANA
03:00 -2.0 -3.4 90 0.0 16 11   100.77   -6 LegendNANA
04:00 -2.2 -3.7 90 0.0 20 7   100.79   -5 LegendNANA
05:00 -2.5 -4.3 88 0.0 15 3   100.81   -4 LegendNANA
06:00 -2.4 -4.1 88 0.0 12 7   100.83   -5 LegendNANA
07:00 -1.8 -3.9 86 0.0 12 14   100.81   -6 LegendNANA
08:00 -1.6 -3.7 86 0.0 14 8   100.80   -5 LegendNANA
09:00 -1.5 -3.5 86 0.0 12 7   100.79   -4 LegendNANA
10:00 -1.5 -3.6 86 0.0 18 14   100.79   -6 LegendNANA
11:00 -0.9 -2.5 89 0.0 20 19   100.77   -6 LegendNANA
12:00 -0.4 -2.7 84 0.0 18 25   100.75   -6 LegendNANA
13:00 -0.6 -2.1 89 0.0 18 24   100.76   -7 LegendNANA
14:00 -0.5 -2.4 87 0.0 18 27   100.76   -7 LegendNANA
15:00 -0.6 -2.4 87 0.0 18 25   100.77   -7 LegendNANA
16:00 -0.6 -2.2 89 0.0 11 20   100.79   -6 LegendNANA
17:00 -1.0 -2.5 89 0.0 13 19   100.77   -6 LegendNANA
18:00 -1.0 -2.6 89 0.0 13 19   100.77   -6 LegendNANA
19:00 -1.2 -2.9 88 0.0 14 17   100.76   -6 LegendNANA
20:00 -1.7 -2.5 94 0.0 11 14   100.75   -6 LegendNANA
21:00 -1.8 -2.7 94 0.0 11 15   100.74   -7 LegendNANA
22:00 -1.8 -2.7 93 0.0 12 14   100.71   -6 LegendNANA
23:00 -1.9 -3.0 93 0.0 11 15   100.71   -7 LegendNANA

Notes on Data Quality.

Legend

  • E = Estimated
  • M = Missing
  • NA = Not Available*
  • [empty] = Indicates an unobserved value
Date modified: